Regional Weather Roundup
Issued by NWS Upton, NY

Current Version | Previous Version | Graphics & Text | Print | Product List | Glossary Off
Versions: 1 2 3 4 5 6 7 8 9 10 11 12 13 14 15 16 17 18 19 20 21 22 23 24 25 26 27

000
ASUS41 KOKX 231705
RWROKX

REGIONAL WEATHER ROUNDUP
NATIONAL WEATHER SERVICE NEW YORK NY
100 PM EDT SAT JUL 23 2016

NOTE: "FAIR" INDICATES FEW OR NO CLOUDS BELOW 12,000 FEET WITH NO
SIGNIFICANT WEATHER AND/OR OBSTRUCTIONS TO VISIBILITY.

NYZ071-072-176-178-NJZ106-104-231800-
NEW YORK CITY METRO AREA

CITY           SKY/WX    TMP DP  RH WIND       PRES   REMARKS
Central Park   SUNNY     93  61  34 VRB5      29.87F HX  93
LaGuardia APRT MOSUNNY   94  59  31 W16       29.83F HX  93
Kennedy INTL   MOSUNNY   95  56  26 W15       29.84F HX  93
Newark/Liberty MOSUNNY   94  60  32 W13G20    29.84F HX  94
BRNX BOT. GARD   N/A     91  59  33 W14       29.86F HX  90
Wall St Helipt SUNNY     93  57  29 SW7       29.85F HX  92
Teterboro      SUNNY     92  58  31 W13G20    29.83F HX  91
$$

NYZ177-179-078>081-231800-
LONG ISLAND NEW YORK

CITY           SKY/WX    TMP DP  RH WIND       PRES   REMARKS
FARMINGDALE    SUNNY     93  58  30 NW12G20   29.84F HX  92
ISLIP          MOSUNNY   94  59  31 NW13G22   29.82F HX  93
SHIRLEY        SUNNY     94  59  31 NW17G23   29.83S HX  93
RIVERHEAD      NOT AVBL
WESTHAMPTON    SUNNY     93  59  31 W16G24    29.83F HX  92
SOUTHAMPTON      N/A     91  66  43 N9        29.78S HX  94
BRIDGEHAMPTON    N/A     91  68  46 E3        29.81S HX  95
EAST HAMPTON   FAIR      88  63  42 W10G25    29.82R
MONTAUK POINT    N/A     86  66  51 W10G20    29.82R
$$

NYZ052-065-067-231800-
HUDSON VALLEY

CITY           SKY/WX    TMP DP  RH WIND       PRES   REMARKS
WHITE PLAINS   MOSUNNY   91  57  31 W13G21    29.85S
NEWBURGH       MOSUNNY   90  64  43 W17G23    29.87S HX  91
MONTGOMERY     SUNNY     91  60  35 W13G21    29.85S HX  90
POUGHKEEPSIE   MOSUNNY   92  62  36 W9G17     29.82F HX  92
ALBANY         MOSUNNY   90  58  33 W22       29.83R
$$

NJZ001-105-106-008-010-013-015-019>022-104-231800-
NEW JERSEY

CITY           SKY/WX    TMP DP  RH WIND       PRES   REMARKS
NEWARK/LIBERTY MOSUNNY   94  60  32 W13G20    29.84F HX  94
TETERBORO      SUNNY     92  58  31 W13G20    29.83F HX  91
CALDWELL       MOSUNNY   93  59  31 NW15      29.85F HX  92
MORRISTOWN     MOSUNNY   91  59  33 W12G23    29.86F HX  90
SOMERVILLE     MOSUNNY   94  60  32 W8        29.85F HX  94
SUSSEX         SUNNY     90  57  32 NW10G21   29.88S
ANDOVER          N/A     90  57  32 MISG      29.89F
TRENTON        SUNNY     93  63  36 NW9       29.87F HX  94
MILLVILLE      SUNNY     93  70  46 NW13      29.90F HX  99
ATLANTIC CITY  MOSUNNY   92  71  50 W12       29.88F HX  98
WRIGHTSTOWN    MOSUNNY   94  68  42 W10G18    29.84F HX  98
TOMS RIVER     MOSUNNY   95  68  41 W12G21    29.87F HX  99
BELMAR         SUNNY     94  60  32 W13G21    29.87F HX  94
$$

PAZ047>061-062-071-231800-
EASTERN PENNSYLVANIA

CITY           SKY/WX    TMP DP  RH WIND       PRES   REMARKS
PHILADELPHIA   MOSUNNY   92  69  47 W12G21    29.89F HX  97
ALLENTOWN      SUNNY     93  59  31 W14G21    29.90F HX  92
SCRANTON       SUNNY     93  55  27 NW15G21   29.90F HX  91
$$

CTZ002-004>006-009-010-012-RIZ004-006-007-MAZ004-011-015-231800-
SOUTHERN NEW ENGLAND
 IN CT

CITY           SKY/WX    TMP DP  RH WIND       PRES   REMARKS
BRADLEY INTL   MOSUNNY   93  57  29 N12G21    29.79S HX  91
HARTFORD       PTSUNNY   93  60  33 NW13      29.79S HX  93
DANBURY        SUNNY     90  60  36 NW13      29.86S
WTRBRY/OXFORD  MOSUNNY   86  61  42 W9G17     29.88S
BRIDGEPORT     MOSUNNY   90  64  42 SW14      29.82S HX  91
MERIDEN        SUNNY     92  62  36 W7G22     29.81S HX  92
NEW HAVEN      MOSUNNY   87  63  44 SW10      29.82S
CHESTER        FAIR      90  61  37 W8G16     29.83S
GROTON         SUNNY     87  65  47 SW15G24   29.79R
WILLIMANTIC    NOT AVBL

 IN RI

CITY           SKY/WX    TMP DP  RH WIND       PRES   REMARKS
PROVIDENCE     MOSUNNY   90  63  40 W12G18    29.77F HX  91
BLOCK ISLAND   SUNNY    N/A N/A N/A W15G22    29.80S
WESTERLY       SUNNY     90  61  37 SW13G21   29.79S HX  90

 IN MA

CITY           SKY/WX    TMP DP  RH WIND       PRES   REMARKS
BOSTON         PTSUNNY   92  58  31 NW12G17   29.73S HX  91
WORCESTER      SUNNY     87  56  34 NW10G26   29.82S
WESTFIELD      SUNNY     92  56  29 NW17G28   29.79S HX  90
PROVINCETOWN   SUNNY     88  68  51 SW8       29.76S HX  91
NANTUCKET      SUNNY     79  69  71 W15       29.78F
$$

ANZ330-335-338-340-345-350-353-355-231800-
COASTAL MARINE OBSERVATIONS


STATION/POSITION TIME  SKY/WX   TEMP    WIND        PRES    VSBY  WAVE
                                AIR SEA DIR/SP/G                  HT/PER
                 (UTC)          (F)     (DEG/KT/KT) (MB)    (MI)  (FT/S)
NY HARB ENTRANCE 1550            80 74  260/  4/  6 1011.0          2/ 8
20S FIRE ISLAND  1550            76 74  270/  6/  8 1010.8          3/ 7
GREAT SOUTH BAY  1600            82 80  240/ 10/ 16   N/A
23 SSW MONTAUK P 1550            73 71  250/  8/ 10 1010.2          4/ 7
15 E BARNEGAT LI 1622               76                N/A           3/ 6
HUDSON CANYON    1550            78 77              1011.3          5/ 6
KINGS POINT      1600            85 72              1010.6
EXECUTION ROCKS  1600            82     270/ 10/ 14   N/A
CENTRAL LI SOUND 1600            77 73  270/ 12/ 16   N/A           1
EASTERN LI SOUND 1600            75 69  250/ 10/ 14   N/A
ROBBINS REEF     1600            88     280/ 14/ 18 1010.2
$$


>>>>>>>>>>>>>>>>>>>>>>>>>>>> KEY <<<<<<<<<<<<<<<<<<<<<<<<<<<
>                                                          <
>     SKY/WX - SKY CONDITION/PRESENT WEATHER               <
>     TMP    - TEMPERATURE IN FAHRENHEIT                   <
>     DP     - DEWPOINT IN FAHRENHEIT                      <
>     RH     - RELATIVE HUMIDITY IN PERCENT                <
>     WIND   - DIRECTION AND SPEED IN MPH                  <
>     PRES   - MEAN SEA LEVEL PRESSURE IN INCHES OF HG     <
>     WCI    - WIND CHILL INDEX                            <
>     VSB    - VISIBILITY IN MILES                         <
>     HX     - HEAT INDEX                                  <
>     TC     - TEMPERATURE IN CELSIUS                      <
>     VRB    - VARIABLE WIND DIRECTION                     <
>                                                          <
>>>>>>>>>>>>>>>>>>>>>>>>>>>> KEY <<<<<<<<<<<<<<<<<<<<<<<<<<<






USA.gov is the U.S. government's official web portal to all federal, state and local government web resources and services.